Precipitable_Water
0.51 0.48 0.44 0.42 0.40 0.37 0.32 0.28 0.24 0.21 0.20 0.27 0.22 0.23 0.21 0.20 0.20 0.18 0.18 0.18 0.16 0.17 0.15 0.15 0.15 0.16 0.16 0.17 0.17 0.18 0.19 0.20 0.20 0.21 0.21 0.21 0.23 0.25
0.49 0.46 0.44 0.43 0.38 0.35 0.33 0.29 0.26 0.23 0.19 0.22 0.22 0.22 0.21 0.21 0.19 0.18 0.17 0.17 0.18 0.15 0.15 0.16 0.16 0.16 0.16 0.17 0.17 0.17 0.18 0.18 0.18 0.19 0.20 0.20 0.21 0.23
0.47 0.45 0.43 0.40 0.36 0.34 0.32 0.30 0.26 0.24 0.21 0.21 0.21 0.21 0.22 0.20 0.19 0.18 0.18 0.18 0.16 0.16 0.16 0.16 0.16 0.16 0.16 0.17 0.17 0.17 0.16 0.16 0.17 0.18 0.19 0.19 0.20 0.21
0.43 0.44 0.41 0.36 0.35 0.34 0.32 0.29 0.27 0.26 0.21 0.18 0.20 0.21 0.19 0.20 0.19 0.19 0.18 0.17 0.17 0.16 0.16 0.16 0.17 0.17 0.17 0.17 0.16 0.16 0.17 0.16 0.17 0.17 0.18 0.18 0.19 0.20
0.43 0.43 0.39 0.35 0.35 0.33 0.31 0.29 0.26 0.23 0.22 0.21 0.18 0.19 0.18 0.18 0.18 0.18 0.17 0.17 0.16 0.16 0.16 0.17 0.18 0.18 0.18 0.17 0.16 0.17 0.16 0.17 0.17 0.17 0.17 0.18 0.18 0.18
0.47 0.43 0.38 0.35 0.34 0.33 0.30 0.28 0.25 0.23 0.22 0.19 0.17 0.17 0.17 0.17 0.18 0.16 0.14 0.15 0.16 0.17 0.17 0.18 0.18 0.18 0.17 0.17 0.17 0.17 0.17 0.18 0.18 0.17 0.17 0.18 0.18 0.18
0.45 0.40 0.37 0.35 0.33 0.29 0.27 0.28 0.24 0.22 0.19 0.16 0.16 0.15 0.15 0.16 0.15 0.15 0.14 0.15 0.15 0.16 0.16 0.16 0.16 0.16 0.17 0.17 0.17 0.16 0.17 0.17 0.18 0.18 0.18 0.17 0.18 0.18
0.39 0.37 0.37 0.30 0.28 0.23 0.21 0.19 0.17 0.16 0.16 0.16 0.15 0.14 0.14 0.16 0.16 0.15 0.14 0.13 0.11 0.15 0.14 0.14 0.17 0.17 0.17 0.17 0.16 0.18 0.18 0.17 0.16 0.17 0.18 0.18 0.19 0.19
0.42 0.39 0.36 0.33 0.27 0.25 0.23 0.21 0.21 0.20 0.18 0.16 0.14 0.15 0.16 0.17 0.15 0.14 0.13 0.12 0.12 0.14 0.15 0.15 0.18 0.16 0.17 0.16 0.18 0.17 0.15 0.15 0.17 0.17 0.18 0.18 0.20 0.22
0.40 0.39 0.34 0.29 0.27 0.21 0.20 0.19 0.19 0.19 0.19 0.19 0.17 0.17 0.17 0.16 0.15 0.14 0.13 0.13 0.14 0.17 0.18 0.14 0.15 0.14 0.17 0.17 0.15 0.14 0.14 0.15 0.16 0.17 0.18 0.18 0.18 0.19
0.39 0.31 0.28 0.26 0.23 0.19 0.17 0.16 0.17 0.17 0.20 0.19 0.18 0.17 0.16 0.15 0.15 0.15 0.13 0.13 0.13 0.14 0.17 0.14 0.13 0.13 0.14 0.13 0.13 0.12 0.14 0.14 0.15 0.17 0.18 0.18 0.18 0.18
0.30 0.28 0.24 0.22 0.19 0.16 0.14 0.14 0.15 0.16 0.16 0.14 0.14 0.14 0.16 0.17 0.18 0.18 0.17 0.14 0.14 0.12 0.14 0.12 0.12 0.12 0.09 0.11 0.12 0.12 0.13 0.14 0.16 0.17 0.19 0.20 0.20 0.19
0.25 0.23 0.23 0.19 0.17 0.14 0.13 0.13 0.14 0.13 0.12 0.12 0.15 0.16 0.16 0.18 0.19 0.19 0.18 0.16 0.14 0.12 0.13 0.13 0.11 0.11 0.10 0.10 0.10 0.11 0.13 0.14 0.16 0.18 0.19 0.20 0.21 0.21
0.22 0.22 0.21 0.17 0.16 0.13 0.12 0.13 0.11 0.11 0.13 0.14 0.14 0.14 0.15 0.16 0.17 0.17 0.16 0.15 0.15 0.14 0.14 0.13 0.11 0.11 0.10 0.09 0.09 0.11 0.12 0.14 0.17 0.17 0.19 0.20 0.23 0.24
0.21 0.20 0.18 0.16 0.13 0.13 0.14 0.12 0.12 0.14 0.14 0.13 0.13 0.14 0.16 0.16 0.16 0.16 0.15 0.15 0.14 0.14 0.14 0.13 0.12 0.12 0.12 0.11 0.10 0.11 0.11 0.12 0.17 0.19 0.19 0.20 0.21 0.22
0.19 0.18 0.16 0.14 0.13 0.14 0.14 0.15 0.15 0.14 0.14 0.14 0.14 0.15 0.15 0.14 0.14 0.13 0.12 0.12 0.11 0.11 0.12 0.13 0.13 0.13 0.12 0.12 0.12 0.10 0.11 0.12 0.17 0.19 0.20 0.22 0.24 0.22
0.19 0.17 0.15 0.16 0.16 0.16 0.15 0.15 0.15 0.15 0.15 0.15 0.14 0.13 0.13 0.13 0.12 0.12 0.11 0.10 0.09 0.09 0.09 0.11 0.12 0.12 0.12 0.11 0.10 0.11 0.12 0.15 0.18 0.19 0.19 0.19 0.21 0.23
0.15 0.13 0.15 0.16 0.16 0.15 0.15 0.15 0.15 0.15 0.15 0.14 0.13 0.13 0.12 0.11 0.10 0.10 0.10 0.10 0.09 0.09 0.09 0.09 0.10 0.09 0.09 0.10 0.12 0.11 0.13 0.16 0.17 0.18 0.19 0.18 0.18 0.21
0.13 0.15 0.16 0.16 0.16 0.16 0.16 0.15 0.15 0.15 0.15 0.13 0.14 0.12 0.11 0.10 0.09 0.09 0.09 0.09 0.09 0.09 0.08 0.09 0.08 0.08 0.08 0.07 0.09 0.12 0.13 0.16 0.17 0.17 0.19 0.20 0.19 0.22
0.15 0.15 0.16 0.17 0.17 0.16 0.16 0.15 0.15 0.14 0.13 0.14 0.13 0.11 0.10 0.09 0.09 0.09 0.09 0.08 0.08 0.08 0.07 0.08 0.09 0.09 0.08 0.07 0.08 0.10 0.17 0.17 0.17 0.17 0.18 0.20 0.23 0.25
0.19 0.19 0.19 0.19 0.17 0.17 0.16 0.15 0.14 0.13 0.14 0.12 0.11 0.10 0.10 0.09 0.08 0.09 0.08 0.08 0.08 0.08 0.07 0.07 0.08 0.09 0.09 0.10 0.09 0.10 0.16 0.18 0.19 0.19 0.20 0.20 0.20 0.22
0.18 0.18 0.18 0.18 0.17 0.16 0.15 0.14 0.14 0.14 0.13 0.11 0.10 0.10 0.09 0.09 0.09 0.08 0.08 0.08 0.07 0.07 0.07 0.08 0.09 0.09 0.08 0.08 0.09 0.11 0.15 0.18 0.20 0.22 0.23 0.23 0.21 0.19
0.19 0.18 0.18 0.17 0.17 0.15 0.15 0.14 0.14 0.12 0.11 0.10 0.09 0.09 0.09 0.08 0.08 0.08 0.08 0.08 0.08 0.07 0.07 0.07 0.08 0.08 0.07 0.08 0.10 0.12 0.16 0.17 0.19 0.20 0.22 0.24 0.26 0.28
Wind_Speed
28 28 27 27 27 27 27 27 27 27 27 27 29 31 32 34 34 35 35 35 36 34 35 36 37 37 38 38 38 38 37 36 37 38 38 37 39 40
29 29 28 28 28 28 27 27 27 28 29 30 32 34 34 35 36 36 37 37 36 36 37 38 39 41 41 41 41 41 41 41 41 41 41 40 40 41
30 29 28 28 28 27 27 28 29 30 31 33 33 35 36 37 37 38 38 38 38 38 40 40 43 43 44 44 45 45 46 46 46 45 44 44 43 42
31 29 29 29 28 28 28 29 30 31 32 34 35 35 37 38 39 39 39 39 40 41 42 44 45 46 46 47 48 49 50 50 49 47 46 46 45 45
31 31 30 29 29 28 29 30 31 32 33 34 35 37 38 39 40 40 40 41 42 43 45 46 48 48 49 50 50 51 51 50 48 47 47 48 48 48
32 32 30 29 29 29 30 31 31 33 33 36 37 38 39 39 40 40 41 43 45 46 47 49 50 50 52 51 51 50 49 47 46 47 48 49 50 50
32 31 30 29 28 29 30 31 32 33 35 37 37 39 39 40 40 42 44 46 47 48 49 49 51 52 51 50 49 47 46 46 45 46 48 50 51 52
32 31 30 29 29 30 31 32 34 35 36 37 38 39 41 41 42 45 47 48 49 49 51 53 52 51 50 48 47 45 44 46 47 47 48 49 50 51
31 29 28 29 30 31 32 33 34 36 37 38 40 40 42 43 46 48 49 51 52 52 54 54 50 49 48 47 45 45 47 46 45 45 46 48 50 51
28 28 28 29 29 31 33 34 36 37 38 39 40 42 44 46 48 50 51 53 52 51 51 50 46 47 45 44 45 45 43 42 42 42 44 46 49 52
26 27 28 29 29 31 34 35 36 38 39 40 42 44 46 48 49 50 50 50 49 47 46 45 44 44 44 44 41 41 39 41 42 41 42 44 47 51
26 26 28 29 30 32 34 35 37 37 39 42 43 45 46 47 47 47 47 47 46 44 42 44 45 45 44 42 37 42 41 40 41 40 40 42 44 48
25 26 27 28 31 33 35 36 37 39 41 43 43 45 45 45 45 45 44 43 43 44 44 45 46 45 44 45 42 40 39 39 39 39 39 40 42 46
25 27 28 30 32 34 35 36 39 40 41 42 43 44 44 44 43 43 43 43 43 45 45 46 46 44 43 42 41 39 38 38 38 37 37 37 38 42
26 26 28 31 33 34 35 37 38 39 40 42 43 43 43 44 43 42 42 42 43 44 44 45 43 42 41 41 40 38 38 37 36 33 34 36 37 40
26 28 29 31 33 34 35 36 37 39 40 41 42 42 42 41 40 40 41 42 43 43 43 42 42 40 40 39 39 38 37 35 35 34 35 34 36 39
26 27 29 31 32 33 35 37 38 39 40 41 41 41 41 39 39 40 41 42 43 43 41 40 40 40 39 38 37 36 35 34 33 34 34 34 34 36
26 28 30 31 33 35 36 38 38 39 39 40 40 39 39 39 39 40 41 41 42 41 40 39 39 38 36 34 33 32 31 32 33 32 31 31 32 33
27 29 31 33 34 35 37 38 38 38 39 38 38 39 38 39 39 40 40 41 40 39 38 38 37 35 33 31 30 30 31 30 30 29 28 28 29 32
29 30 32 33 35 36 37 38 38 38 38 38 38 38 38 39 39 40 40 40 39 38 37 36 34 32 31 31 30 30 27 28 27 26 27 27 29 31
30 31 32 34 35 36 37 37 37 38 38 38 38 38 38 38 39 39 40 39 38 37 35 34 33 34 33 30 28 27 26 26 26 26 26 25 26 26
31 32 34 35 36 36 37 37 37 37 37 37 37 38 38 38 39 40 39 38 36 36 35 34 33 31 30 27 27 27 26 25 24 23 22 24 24 25
31 32 34 35 36 36 36 36 37 37 37 37 38 38 38 39 39 39 38 36 36 35 34 33 32 30 28 26 25 25 26 24 23 21 20 20 23 25
Wind_Direction
271 275 277 282 283 286 286 287 288 289 289 292 293 296 297 298 298 298 298 298 299 297 298 298 299 298 298 296 294 292 289 286 280 275 270 265 258 254
270 273 277 279 284 286 286 285 286 286 288 292 293 294 295 296 297 297 297 297 296 295 296 296 297 297 296 294 293 291 288 285 282 275 268 264 260 255
268 272 276 281 283 283 284 285 286 287 289 291 292 293 295 295 296 297 296 295 295 295 296 296 296 295 294 293 291 289 287 284 281 275 267 262 259 255
269 273 276 279 280 281 284 285 287 289 290 291 292 294 295 296 297 297 295 295 295 296 296 296 296 295 293 293 291 289 287 284 279 272 265 260 257 254
267 273 275 278 279 281 284 286 288 290 290 291 293 294 296 297 297 297 295 296 296 297 297 297 296 294 293 293 291 289 286 282 277 270 262 259 256 253
266 271 273 275 278 281 283 287 289 290 291 292 294 295 297 298 298 297 297 297 298 298 298 297 297 295 294 293 291 288 285 280 275 269 262 257 255 252
265 269 272 275 277 282 285 288 290 291 292 294 295 297 298 299 298 299 299 299 299 299 298 297 297 296 295 294 291 288 284 280 275 270 264 258 253 250
266 269 271 273 278 282 285 288 290 291 294 295 296 297 298 298 299 299 300 300 300 301 300 298 298 295 294 293 291 287 284 281 277 272 265 257 251 247
266 268 270 274 279 283 285 288 290 292 293 295 296 297 298 299 300 301 301 301 300 301 300 299 298 295 294 293 290 288 286 282 278 272 265 257 250 245
264 268 272 276 281 284 287 291 292 293 295 296 297 297 298 300 300 301 301 301 301 301 300 299 298 296 295 292 291 290 286 283 279 274 267 259 251 245
265 270 274 279 283 288 290 293 294 296 297 297 298 299 300 300 301 302 302 302 302 302 301 300 300 299 297 295 293 290 286 284 281 275 268 261 253 246
270 275 277 282 287 290 293 295 297 297 299 300 300 301 302 302 302 302 302 302 302 301 301 301 301 301 298 296 293 293 289 285 282 276 269 262 254 246
274 278 282 285 289 293 296 297 298 300 301 301 302 303 304 304 303 303 303 302 302 301 302 302 301 299 295 295 294 292 289 286 282 276 271 263 254 245
278 283 286 288 292 295 296 297 300 301 302 303 304 305 305 305 305 304 303 301 301 301 302 302 300 299 297 295 294 293 290 287 283 277 271 264 254 245
283 286 289 292 295 296 296 299 301 302 303 304 305 305 306 306 305 304 303 303 303 303 303 302 300 299 296 295 294 293 291 289 283 275 272 265 256 247
286 289 292 294 296 298 300 301 302 304 305 305 306 306 306 307 306 306 305 306 306 306 305 303 301 299 297 295 293 292 291 285 283 278 273 265 257 248
287 292 294 296 298 299 301 302 304 305 305 306 306 307 307 307 307 308 307 308 308 308 307 305 303 301 298 296 293 291 290 286 284 281 275 266 257 249
290 293 295 297 299 301 302 304 304 305 306 307 307 307 307 308 308 309 309 309 309 308 308 307 306 305 301 297 291 292 291 289 287 282 275 266 258 250
292 295 297 299 300 302 303 304 305 306 306 307 307 307 307 308 309 310 310 310 310 309 308 308 308 306 303 299 296 295 293 291 289 283 274 265 258 252
295 297 299 300 301 303 304 305 305 306 306 307 307 307 308 308 309 310 311 311 310 310 309 308 307 306 303 300 297 297 296 292 290 283 278 270 262 255
296 298 300 301 302 304 304 304 305 305 306 306 307 307 308 309 309 310 310 310 309 309 309 308 307 306 303 298 294 294 295 295 291 284 280 273 263 255
298 300 301 303 304 304 304 305 305 306 306 307 307 308 308 309 309 310 310 309 309 309 308 308 308 307 304 298 295 297 298 299 295 287 281 270 262 253
301 302 303 304 304 304 304 305 305 306 306 307 307 308 308 308 309 309 308 308 308 309 308 308 307 306 302 297 296 298 299 301 298 293 286 281 269 259